New Roads False River Regiona, LA

12:45 AM CDT on July 23, 2019 (GMT -0500)
False River

Weather History for KHZR - May, 2019

Change the Weather History Date:

Saturday, May 4, 2019

  Actual Average (KBTR) Record (KBTR)
Temperature  
Mean Temperature 72 °F -  
Max Temperature 78 °F 80 °F 94 °F (1952)
Min Temperature 66 °F 59 °F 40 °F (2013)
Cooling Degree Days 7    
Growing Degree Days 22 (Base 50)    
Moisture  
Dew Point 68 °F    
Average Humidity 88    
Maximum Humidity 100    
Minimum Humidity 65    
Precipitation  
Precipitation 0.78 in - - ()
Sea Level Pressure  
Sea Level Pressure 29.83 in    
Wind  
Wind Speed 5 mph (SSW)    
Max Wind Speed 12 mph    
Max Gust Speed 28 mph    
Visibility 9 miles    
Events Rain , Thunderstorm    
Averages and records for this station are not official NWS values.
T = Trace of Precipitation, MM = Missing Value Source: NWS Daily Summary

Daily Weather History Graph

Daily Weather History Graph

Search for Another Location

Airport or City:

Astronomy

May. 04, 2019 Rise Set
Actual Time 6:19 AM CDT 7:46 PM CDT
Civil Twilight 5:53 AM CDT 8:12 PM CDT
Nautical Twilight 5:23 AM CDT 8:42 PM CDT
Astronomical Twilight 4:51 AM CDT 9:15 PM CDT
Moon 6:23 AM CDT (5/4) 7:40 PM CDT (5/4)
Length of Visible Light 14h 18m
Length of Day
13h 26m
Waning Crescent, 0% of the Moon is Illuminated
May 4
Waning Crescent
May 4
New
May 11
First Quarter
May 18
Full
May 26
Last Quarter

Hourly Weather History & Observations

Time (CDT) Temp. Dew Point Humidity Pressure Visibility Wind Dir Wind Speed Gust Speed Precip Events Conditions
12:15 AM 73.4 °F 69.8 °F 88% 29.91 in 10.0 mi South 4.6 mph - N/A   Clear
12:35 AM 73.4 °F 69.8 °F 88% 29.90 in 10.0 mi South 5.8 mph - N/A   Clear
12:55 AM 73.4 °F 69.8 °F 88% 29.90 in 10.0 mi South 4.6 mph - N/A   Clear
1:16 AM 71.6 °F 69.8 °F 94% 29.90 in 10.0 mi South 4.6 mph - N/A   Clear
1:36 AM 71.6 °F 69.8 °F 94% 29.89 in 10.0 mi SSE 5.8 mph - N/A   Clear
1:56 AM 71.6 °F 69.8 °F 94% 29.88 in 10.0 mi SSE 5.8 mph - N/A   Clear
2:17 AM 71.6 °F 69.8 °F 94% 29.87 in 10.0 mi SSE 5.8 mph - N/A   Clear
2:36 AM 71.6 °F 69.8 °F 94% 29.86 in 10.0 mi SSE 5.8 mph - N/A   Clear
2:55 AM 71.6 °F 69.8 °F 94% 29.86 in 10.0 mi SSE 4.6 mph - N/A   Clear
3:15 AM 71.6 °F 69.8 °F 94% 29.85 in 10.0 mi SSE 5.8 mph - N/A   Scattered Clouds
3:35 AM 71.6 °F 69.8 °F 94% 29.85 in 10.0 mi SSE 5.8 mph - N/A   Scattered Clouds
4:16 AM 71.6 °F 71.6 °F 100% 29.83 in 10.0 mi SSE 3.5 mph - 0.01 in Rain Light Rain
4:37 AM 71.6 °F 69.8 °F 94% 29.83 in 7.0 mi Calm Calm - 0.01 in   Light Drizzle
4:57 AM 71.6 °F 71.6 °F 100% 29.84 in 7.0 mi SSE 5.8 mph - 0.03 in Rain Light Rain
5:35 AM 71.6 °F 69.8 °F 94% 29.83 in 10.0 mi South 3.5 mph - 0.09 in Rain Light Rain
5:56 AM 71.6 °F 69.8 °F 94% 29.81 in 10.0 mi Calm Calm - 0.10 in Rain Rain
6:38 AM 71.6 °F 69.8 °F 94% 29.81 in 10.0 mi Calm Calm - N/A   Scattered Clouds
7:16 AM 71.6 °F 71.6 °F 100% 29.83 in 10.0 mi Calm Calm - N/A Thunderstorm Thunderstorm
7:37 AM 69.8 °F 68.0 °F 94% 29.85 in 1.8 mi South 9.2 mph 27.6 mph 0.44 in Rain , Thunderstorm Heavy Thunderstorms and Rain
7:59 AM 66.2 °F 66.2 °F 100% 29.86 in 3.0 mi SSW 9.2 mph - 0.65 in Rain , Thunderstorm Heavy Thunderstorms and Rain
1:15 PM 75.2 °F 69.8 °F 83% 29.81 in 10.0 mi South 6.9 mph - N/A   Mostly Cloudy
1:56 PM 77.0 °F 69.8 °F 78% 29.79 in 10.0 mi SSW 9.2 mph - N/A   Mostly Cloudy
3:16 PM 77.0 °F 68.0 °F 74% 29.76 in 10.0 mi SW 8.1 mph - N/A   Mostly Cloudy
3:36 PM 75.2 °F 68.0 °F 78% 29.76 in 10.0 mi SW 6.9 mph - N/A Rain Light Rain
4:15 PM 73.4 °F 68.0 °F 83% 29.76 in 10.0 mi WNW 9.2 mph - N/A   Mostly Cloudy
4:35 PM 75.2 °F 66.2 °F 73% 29.76 in 10.0 mi WNW 9.2 mph - N/A   Scattered Clouds
4:55 PM 77.0 °F 68.0 °F 74% 29.76 in 10.0 mi West 11.5 mph - N/A   Scattered Clouds
5:15 PM 77.0 °F 66.2 °F 69% 29.75 in 10.0 mi WNW 9.2 mph - N/A   Scattered Clouds
5:35 PM 75.2 °F 66.2 °F 73% 29.76 in 10.0 mi WNW 9.2 mph - N/A   Mostly Cloudy
5:57 PM 78.8 °F 66.2 °F 65% 29.76 in 10.0 mi WNW 9.2 mph - N/A   Scattered Clouds
6:35 PM 71.6 °F 64.4 °F 78% 29.79 in 10.0 mi NNW 11.5 mph - N/A   Mostly Cloudy
6:55 PM 69.8 °F 64.4 °F 83% 29.79 in 10.0 mi NNW 6.9 mph - N/A Rain Light Rain
7:57 PM 69.8 °F 66.2 °F 88% 29.80 in 10.0 mi Calm Calm - N/A   Overcast
8:16 PM 69.8 °F 66.2 °F 88% 29.81 in 10.0 mi West 4.6 mph - N/A   Overcast
10:57 PM 68.0 °F 66.2 °F 94% 29.86 in 10.0 mi WNW 4.6 mph - N/A   Clear
11:16 PM 68.0 °F 64.4 °F 88% 29.86 in 10.0 mi NW 3.5 mph - N/A   Clear
11:36 PM 66.2 °F 64.4 °F 94% 29.86 in 10.0 mi Calm Calm - N/A   Clear